�N����,����,�~����,�C��,���x,�C��,����,���ϕ���,�ő�u�ԕ���,�ő厞����,���˗�,�I�_���x,�n�����x,�ő啗���N��,DTYPE
"21/11/16","00:10",0.0,8.5,93.8,1016.1,293.6,1.2,2.0,320.9,0.00,7.6,13.5,"00:00:32",1
"21/11/16","00:20",0.0,8.2,94.1,1016.1,304.1,1.5,2.2,321.5,0.00,7.3,13.4,"00:14:00",1
"21/11/16","00:30",0.0,8.7,94.5,1015.6,311.6,2.0,4.2,338.2,0.00,7.9,13.3,"00:28:40",1
"21/11/16","00:40",0.0,9.7,94.3,1016.1,327.2,2.2,3.6,331.7,0.00,8.9,13.2,"00:36:00",1
"21/11/16","00:50",0.0,9.7,94.2,1016.1,303.2,2.0,2.8,322.9,0.00,8.9,13.3,"00:42:00",1
"21/11/16","01:00",0.0,9.5,94.2,1015.9,291.2,1.6,3.1,320.3,0.00,8.7,13.3,"00:56:56",1
"21/11/16","01:10",0.0,9.1,94.3,1015.9,284.3,1.5,2.2,319.8,0.00,8.3,13.3,"01:09:44",1
"21/11/16","01:20",0.0,8.7,94.4,1016.1,307.2,1.5,2.2,323.6,0.00,7.9,13.2,"01:16:48",1
"21/11/16","01:30",0.0,8.3,94.6,1016.1,317.4,1.6,2.0,323.9,0.00,7.5,13.2,"01:27:28",1
"21/11/16","01:40",0.0,8.0,94.7,1016.1,288.8,1.3,2.0,292.5,0.00,7.2,13.1,"01:32:56",1
"21/11/16","01:50",0.0,7.6,94.8,1015.9,298.9,0.8,1.4,287.1,0.00,6.9,13.1,"01:48:40",1
"21/11/16","02:00",0.0,7.5,95.1,1015.9,311.9,2.0,2.7,323.7,0.00,6.8,13.0,"01:55:12",1
"21/11/16","02:10",0.0,7.2,95.0,1015.9,290.7,1.3,2.0,308.7,0.00,6.5,13.0,"02:01:52",1
"21/11/16","02:20",0.0,7.2,95.3,1016.1,305.3,1.7,2.4,326.4,0.00,6.5,13.1,"02:15:04",1
"21/11/16","02:30",0.0,7.5,95.4,1016.4,292.2,1.7,2.7,309.8,0.00,6.9,12.9,"02:27:52",1
"21/11/16","02:40",0.0,7.6,95.3,1016.4,291.4,1.2,1.9,270.3,0.00,6.9,12.8,"02:31:44",1
"21/11/16","02:50",0.0,7.5,95.4,1016.4,295.0,1.6,2.0,301.7,0.00,6.9,12.8,"02:41:04",1
"21/11/16","03:00",0.0,7.2,95.4,1016.4,294.0,0.7,1.7,323.0,0.00,6.6,12.8,"02:50:08",1
"21/11/16","03:10",0.0,7.0,95.5,1016.1,288.9,1.2,1.7,271.3,0.00,6.4,13.0,"03:05:04",1
"21/11/16","03:20",0.0,6.7,95.7,1015.9,306.7,1.3,2.4,317.8,0.00,6.1,12.6,"03:16:56",1
"21/11/16","03:30",0.0,6.6,95.8,1015.2,303.8,1.2,1.7,319.4,0.00,6.0,12.8,"03:20:48",1
"21/11/16","03:40",0.0,6.6,96.0,1016.1,310.3,1.6,1.9,322.5,0.00,6.0,12.8,"03:31:28",1
"21/11/16","03:50",0.0,6.6,95.9,1015.4,303.3,1.5,2.1,321.7,0.00,6.0,12.7,"03:40:24",1
"21/11/16","04:00",0.0,6.5,96.1,1015.6,313.2,1.6,2.0,321.1,0.00,6.0,12.7,"03:55:52",1
"21/11/16","04:10",0.0,6.5,96.1,1015.6,309.8,0.6,1.6,308.9,0.00,6.0,12.7,"04:00:48",1
"21/11/16","04:20",0.0,6.3,96.3,1015.6,293.4,1.3,1.9,312.6,0.00,5.8,12.7,"04:15:28",1
"21/11/16","04:30",0.0,6.3,96.4,1015.2,299.4,1.3,1.8,311.6,0.00,5.8,12.4,"04:25:22",1
"21/11/16","04:40",0.0,6.4,96.3,1015.2,314.5,1.2,2.1,314.4,0.00,5.9,12.5,"04:37:12",1
"21/11/16","04:50",0.0,6.2,96.5,1015.2,303.1,1.3,1.7,309.5,0.00,5.7,12.3,"04:41:12",1
"21/11/16","05:00",0.0,6.2,96.6,1015.4,307.1,1.6,2.2,315.5,0.00,5.7,12.5,"04:54:16",1
"21/11/16","05:10",0.0,6.9,97.0,1015.6,305.3,1.8,4.0,322.8,0.00,6.5,12.6,"05:09:44",1
"21/11/16","05:20",0.0,8.2,96.6,1016.1,324.0,2.3,4.7,336.4,0.00,7.7,12.5,"05:18:40",1
"21/11/16","05:30",0.0,8.6,96.5,1016.4,326.0,2.6,4.8,337.5,0.00,8.1,12.3,"05:27:28",1
"21/11/16","05:40",0.0,8.6,96.5,1016.8,313.6,2.2,4.1,314.7,0.00,8.1,12.3,"05:33:36",1
"21/11/16","05:50",0.2,8.5,96.6,1016.6,328.0,2.2,3.9,311.8,0.00,8.0,12.4,"05:49:28",1
"21/11/16","06:00",0.0,8.6,96.5,1016.1,329.7,3.0,5.2,344.6,0.00,8.1,12.4,"05:57:04",1
"21/11/16","06:10",0.0,8.2,96.5,1016.4,307.9,2.3,3.9,313.5,0.00,7.7,12.2,"06:01:20",1
"21/11/16","06:20",0.0,8.1,96.6,1016.4,309.2,1.5,2.8,313.8,0.00,7.6,12.3,"06:13:36",1
"21/11/16","06:30",0.0,7.6,96.6,1016.8,307.1,0.6,1.3,314.1,0.00,7.1,12.2,"06:26:44",1
"21/11/16","06:40",0.0,7.0,96.9,1016.6,278.9,0.2,0.8,314.6,0.00,6.6,12.4,"06:39:08",1
"21/11/16","06:50",0.0,7.0,97.0,1016.4,325.9,1.5,1.6,335.5,0.00,6.6,12.3,"06:44:14",1
"21/11/16","07:00",0.0,7.3,97.2,1017.1,301.6,1.2,1.4,281.0,0.00,6.9,12.2,"06:57:56",1
"21/11/16","07:10",0.0,7.7,97.1,1017.1,292.9,1.5,1.7,309.1,0.00,7.3,12.2,"07:04:28",1
"21/11/16","07:20",0.0,7.7,97.1,1016.8,299.4,1.5,2.1,318.8,0.00,7.3,12.3,"07:12:08",1
"21/11/16","07:30",0.0,7.7,97.1,1017.3,316.4,1.3,2.2,332.5,0.00,7.3,11.9,"07:21:32",1
"21/11/16","07:40",0.0,7.5,97.3,1017.3,296.4,1.0,1.4,275.1,0.00,7.1,12.0,"07:31:06",1
"21/11/16","07:50",0.0,7.9,97.4,1017.1,314.6,1.0,1.8,327.9,0.02,7.6,12.3,"07:41:04",1
"21/11/16","08:00",0.0,8.2,97.3,1017.3,266.7,0.7,1.2,264.2,0.03,7.8,12.0,"07:56:56",1
"21/11/16","08:10",0.0,8.9,97.3,1017.3,261.9,0.6,1.0,293.3,0.05,8.5,12.1,"08:00:48",1
"21/11/16","08:20",0.0,9.4,97.2,1017.5,261.0,0.6,1.1,246.4,0.06,9.0,12.3,"08:17:12",1
"21/11/16","08:30",0.0,10.1,97.0,1017.5,272.9,0.2,0.8,261.2,0.08,9.7,12.2,"08:24:00",1
"21/11/16","08:40",0.0,10.3,97.0,1018.0,14.3,0.3,1.1,344.5,0.08,9.9,12.1,"08:39:52",1
"21/11/16","08:50",0.0,11.0,96.9,1017.8,321.8,1.1,1.7,331.4,0.12,10.6,12.1,"08:41:04",1
"21/11/16","09:00",0.0,11.0,96.5,1018.0,278.0,1.1,2.0,270.7,0.15,10.5,12.1,"08:58:48",1
"21/11/16","09:10",0.0,10.8,96.5,1018.2,267.5,1.6,2.2,242.5,0.17,10.3,12.2,"09:02:24",1
"21/11/16","09:20",0.0,11.0,96.2,1018.0,269.5,1.6,2.8,251.4,0.19,10.5,12.2,"09:10:16",1
"21/11/16","09:30",0.0,11.4,95.8,1018.2,263.2,1.3,2.5,308.4,0.21,10.8,12.3,"09:21:12",1
"21/11/16","09:40",0.0,11.7,94.9,1018.0,252.8,1.0,2.1,252.0,0.23,11.0,12.1,"09:33:04",1
"21/11/16","09:50",0.0,12.6,94.6,1018.0,265.6,0.7,1.7,251.0,0.25,11.8,12.3,"09:47:36",1
"21/11/16","10:00",0.0,12.7,93.2,1018.2,235.9,1.0,2.2,241.5,0.27,11.7,12.2,"09:59:04",1
"21/11/16","10:10",0.0,13.2,92.1,1018.5,278.0,1.1,2.1,238.0,0.30,12.0,12.2,"10:01:44",1
"21/11/16","10:20",0.0,13.8,90.0,1018.5,294.5,1.1,1.8,317.4,0.32,12.2,12.6,"10:11:52",1
"21/11/16","10:30",0.0,14.4,87.2,1018.2,337.3,0.6,1.4,113.6,0.34,12.3,12.5,"10:28:40",1
"21/11/16","10:40",0.0,15.3,83.3,1018.5,251.2,0.7,1.4,229.5,0.37,12.5,12.7,"10:36:00",1
"21/11/16","10:50",0.0,15.9,78.8,1018.2,237.1,0.7,1.8,322.8,0.36,12.3,12.6,"10:41:20",1
"21/11/16","11:00",0.0,16.0,75.5,1017.8,358.9,0.6,1.8,353.0,0.32,11.7,12.7,"10:58:32",1
"21/11/16","11:10",0.0,16.9,72.8,1017.5,271.1,0.6,1.6,9.7,0.43,12.0,12.7,"11:00:56",1
"21/11/16","11:20",0.0,17.2,71.5,1017.5,222.2,0.6,1.6,246.2,0.31,12.0,12.7,"11:18:24",1
"21/11/16","11:30",0.0,17.4,69.8,1017.1,255.7,0.7,1.6,136.0,0.38,11.9,12.9,"11:22:56",1
"21/11/16","11:40",0.0,18.1,67.0,1016.4,235.4,0.8,2.4,248.0,0.41,11.9,12.8,"11:37:20",1
"21/11/16","11:50",0.0,18.4,64.2,1016.6,253.6,1.6,3.3,233.0,0.42,11.6,13.1,"11:48:48",1
"21/11/16","12:00",0.0,18.6,60.5,1015.9,287.9,1.5,3.6,228.3,0.43,10.9,13.2,"11:53:28",1
"21/11/16","12:10",0.0,18.8,60.1,1015.6,275.6,1.7,3.7,238.8,0.43,10.9,13.3,"12:00:40",1
"21/11/16","12:20",0.0,18.7,58.5,1015.6,261.6,2.3,5.1,227.7,0.45,10.4,13.5,"12:16:56",1
"21/11/16","12:30",0.0,18.9,57.3,1015.4,279.8,1.7,3.9,238.9,0.40,10.3,13.3,"12:20:40",1
"21/11/16","12:40",0.0,19.3,56.4,1015.2,274.5,1.8,4.7,247.6,0.45,10.5,13.6,"12:31:12",1
"21/11/16","12:50",0.0,19.6,53.8,1014.7,298.6,1.8,3.3,243.3,0.45,10.0,13.6,"12:44:48",1
"21/11/16","13:00",0.0,19.4,49.6,1014.7,309.8,2.1,4.4,354.3,0.34,8.6,13.7,"12:51:04",1
"21/11/16","13:10",0.0,19.2,49.7,1014.5,248.1,1.7,4.7,237.3,0.31,8.5,13.6,"13:02:08",1
"21/11/16","13:20",0.0,19.3,48.5,1014.2,293.8,1.5,2.9,288.1,0.28,8.2,13.8,"13:15:28",1
"21/11/16","13:30",0.0,19.5,50.8,1013.8,276.8,1.5,2.6,289.2,0.30,9.1,14.0,"13:24:40",1
"21/11/16","13:40",0.0,19.4,50.8,1014.2,273.8,1.7,3.4,237.2,0.31,9.0,14.1,"13:35:12",1
"21/11/16","13:50",0.0,19.6,49.5,1014.5,272.6,1.7,4.2,338.7,0.33,8.8,14.1,"13:48:08",1
"21/11/16","14:00",0.0,19.4,49.7,1014.0,299.0,1.8,4.2,328.2,0.29,8.7,14.1,"13:58:08",1
"21/11/16","14:10",0.0,19.6,49.6,1014.0,323.7,1.7,4.3,341.8,0.27,8.8,14.2,"14:00:24",1
"21/11/16","14:20",0.0,19.4,48.8,1014.0,337.1,1.8,4.0,347.9,0.22,8.4,14.5,"14:12:56",1
"21/11/16","14:30",0.0,19.3,50.1,1014.0,336.2,1.2,3.2,346.7,0.16,8.7,14.4,"14:28:32",1
"21/11/16","14:40",0.0,19.2,51.5,1014.0,333.2,1.7,3.9,342.1,0.21,9.0,14.5,"14:39:04",1
"21/11/16","14:50",0.0,18.5,52.7,1014.2,349.6,2.0,3.5,6.1,0.12,8.7,14.7,"14:48:40",1
"21/11/16","15:00",0.0,18.4,54.3,1014.2,346.2,1.8,4.1,350.8,0.13,9.1,14.6,"14:54:24",1
"21/11/16","15:10",0.0,18.8,53.6,1014.2,335.0,1.8,3.7,338.5,0.17,9.2,14.4,"15:09:36",1
"21/11/16","15:20",0.0,18.9,51.2,1014.2,332.6,2.0,3.9,354.3,0.14,8.6,14.6,"15:15:04",1
"21/11/16","15:30",0.0,18.7,51.4,1014.0,324.7,1.7,3.2,331.1,0.10,8.5,14.7,"15:23:36",1
"21/11/16","15:40",0.0,18.5,52.4,1014.0,330.4,1.5,3.1,323.0,0.07,8.6,14.8,"15:31:04",1
"21/11/16","15:50",0.0,18.5,53.8,1014.0,324.6,1.2,1.8,337.2,0.07,9.0,14.6,"15:46:00",1
"21/11/16","16:00",0.0,18.1,56.0,1014.5,336.2,1.3,2.8,325.8,0.05,9.2,14.7,"15:52:48",1
"21/11/16","16:10",0.0,17.6,58.8,1014.7,336.7,1.5,2.5,343.4,0.05,9.5,14.7,"16:01:44",1
"21/11/16","16:20",0.0,17.4,59.0,1014.9,332.0,1.6,3.3,347.2,0.04,9.4,14.6,"16:11:44",1
"21/11/16","16:30",0.0,17.0,58.3,1014.7,331.0,1.7,3.4,336.6,0.02,8.8,14.9,"16:28:48",1
"21/11/16","16:40",0.0,16.9,59.9,1014.9,323.6,1.8,2.9,346.5,0.01,9.1,14.9,"16:33:52",1
"21/11/16","16:50",0.0,16.4,61.1,1015.2,327.6,2.2,3.7,337.2,0.00,8.9,14.7,"16:47:20",1
"21/11/16","17:00",0.0,16.0,64.6,1015.4,341.2,2.7,5.9,337.2,0.00,9.4,14.7,"16:59:20",1
"21/11/16","17:10",0.0,15.4,67.3,1015.2,340.0,2.7,4.7,345.2,0.00,9.4,14.9,"17:01:12",1
"21/11/16","17:20",0.0,14.8,68.7,1015.4,334.6,2.5,4.4,344.9,0.00,9.1,14.8,"17:14:58",1
"21/11/16","17:30",0.0,14.5,69.4,1015.4,338.6,2.2,4.0,353.5,0.00,9.0,14.8,"17:21:08",1
"21/11/16","17:40",0.0,14.3,70.3,1015.6,337.9,2.2,4.2,342.5,0.00,9.0,14.6,"17:32:32",1
"21/11/16","17:50",0.0,14.0,71.0,1015.9,336.0,1.7,3.1,335.4,0.00,8.9,14.7,"17:41:48",1
"21/11/16","18:00",0.0,13.9,71.6,1015.6,344.8,1.2,2.1,0.1,0.00,8.9,14.9,"17:55:44",1
"21/11/16","18:10",0.0,13.7,72.4,1015.6,337.3,1.1,2.4,6.5,0.00,8.9,14.7,"18:09:02",1
"21/11/16","18:20",0.0,13.5,72.9,1015.9,342.0,0.8,1.6,29.5,0.00,8.8,14.7,"18:10:28",1
"21/11/16","18:30",0.0,13.2,73.6,1016.4,23.2,0.3,1.1,329.1,0.00,8.6,14.6,"18:28:44",1
"21/11/16","18:40",0.0,13.2,74.6,1016.4,5.2,0.6,1.7,351.6,0.00,8.8,14.6,"18:33:42",1
"21/11/16","18:50",0.0,13.3,74.8,1016.6,352.7,1.0,2.1,346.1,0.00,9.0,14.7,"18:44:36",1
"21/11/16","19:00",0.0,12.8,75.9,1016.6,324.8,1.1,2.0,323.6,0.00,8.7,14.5,"18:55:08",1
"21/11/16","19:10",0.0,12.4,77.5,1016.8,326.9,1.3,1.9,341.3,0.00,8.6,14.6,"19:08:48",1
"21/11/16","19:20",0.0,12.1,79.4,1016.8,323.6,1.3,2.4,332.3,0.00,8.7,14.6,"19:17:06",1
"21/11/16","19:30",0.0,11.8,80.8,1016.6,312.2,1.2,2.1,303.4,0.00,8.7,14.3,"19:29:38",1
"21/11/16","19:40",0.0,11.6,82.0,1016.4,290.1,1.3,2.0,327.0,0.00,8.7,14.7,"19:33:44",1
"21/11/16","19:50",0.0,11.5,82.9,1016.6,305.2,1.2,2.2,335.5,0.00,8.7,14.5,"19:43:28",1
"21/11/16","20:00",0.0,11.5,83.6,1016.8,323.4,1.3,2.5,341.8,0.00,8.9,14.4,"19:50:48",1
"21/11/16","20:10",0.0,11.3,84.5,1016.8,317.7,1.6,2.2,343.2,0.00,8.8,14.4,"20:00:48",1
"21/11/16","20:20",0.0,11.2,85.0,1016.8,310.2,1.2,2.1,333.6,0.00,8.8,14.3,"20:17:54",1
"21/11/16","20:30",0.0,11.2,85.7,1017.1,313.8,1.6,2.0,313.0,0.00,8.9,14.3,"20:27:44",1
"21/11/16","20:40",0.0,11.6,85.8,1017.3,321.9,2.0,2.7,330.0,0.00,9.3,14.2,"20:34:10",1
"21/11/16","20:50",0.0,11.9,85.5,1017.3,313.8,1.7,3.2,320.3,0.00,9.6,14.6,"20:40:52",1
"21/11/16","21:00",0.0,12.0,85.1,1017.8,326.0,1.7,2.7,332.5,0.00,9.6,14.2,"20:58:14",1
"21/11/16","21:10",0.0,12.1,84.6,1017.5,328.7,1.8,2.6,324.9,0.00,9.6,14.3,"21:07:08",1
"21/11/16","21:20",0.0,12.2,83.9,1017.8,326.9,2.0,2.8,335.4,0.00,9.6,14.2,"21:12:58",1
"21/11/16","21:30",0.0,12.4,83.0,1017.5,325.9,2.1,3.7,340.0,0.00,9.6,14.1,"21:21:24",1
"21/11/16","21:40",0.0,12.4,82.2,1017.8,329.3,1.7,2.2,322.4,0.00,9.5,14.3,"21:31:24",1
"21/11/16","21:50",0.0,12.4,81.6,1018.0,325.6,2.0,2.7,344.5,0.00,9.4,14.1,"21:48:04",1
"21/11/16","22:00",0.0,12.3,81.3,1017.8,323.5,1.8,3.3,329.9,0.00,9.2,14.1,"21:57:54",1
"21/11/16","22:10",0.0,12.2,81.1,1017.5,329.2,1.8,2.7,321.8,0.00,9.1,14.2,"22:07:22",1
"21/11/16","22:20",0.0,12.2,81.0,1017.5,324.9,1.7,2.4,317.2,0.00,9.1,14.1,"22:11:16",1
"21/11/16","22:30",0.0,11.9,81.0,1017.8,322.6,1.3,1.9,324.9,0.00,8.8,14.2,"22:20:08",1
"21/11/16","22:40",0.0,11.6,81.2,1017.5,320.4,1.2,1.8,334.8,0.00,8.5,14.0,"22:32:12",1
"21/11/16","22:50",0.0,11.3,81.8,1017.5,1.7,0.5,1.2,344.4,0.00,8.3,14.0,"22:40:36",1
"21/11/16","23:00",0.0,10.9,82.6,1017.3,307.7,0.8,1.3,264.7,0.00,8.1,14.0,"22:54:14",1
"21/11/16","23:10",0.0,10.6,83.4,1017.3,299.4,1.0,1.8,338.5,0.00,7.9,14.0,"23:04:32",1
"21/11/16","23:20",0.0,10.3,84.2,1017.3,323.0,1.2,1.8,326.2,0.00,7.8,13.7,"23:10:16",1
"21/11/16","23:30",0.0,10.0,84.9,1017.3,308.8,1.2,1.8,325.7,0.00,7.6,13.9,"23:22:56",1
"21/11/16","23:40",0.0,10.0,86.0,1017.5,311.4,1.7,2.2,328.4,0.00,7.8,14.0,"23:33:04",1
"21/11/16","23:50",0.0,10.1,86.6,1017.5,300.7,1.3,1.8,324.7,0.00,8.0,13.9,"23:48:16",1
"21/11/16","24:00",0.0,9.8,86.9,1017.1,306.3,1.0,2.4,322.9,0.00,7.8,14.1,"23:50:48",1
